Location: Batoa
(6.8173°N, 10.9294°W)
Time: 02:14:30
(UTC+00:00)

Daily predictions for brighter satellites

Satellite Brightness Start Highest point End
(mag) Time Altitude Azimuth Time Altitude Azimuth Time Altitude Azimuth
ARIANE 5 R/B 4.5 03:24:13 27° ESE 03:24:13 27° ESE 03:31:22 10° E
ARIANE 5 DEB (SYLDA) 4.2 03:53:06 37° ESE 03:53:06 37° ESE 03:55:48 10° ESE
ATLAS CENTAUR R/B 3.9 04:30:18 10° SSE 04:33:34 21° ESE 04:36:42 10° ENE
ADEOS Rocket 4.4 04:32:28 10° SE 04:37:28 31° ENE 04:42:15 10° NNE
Nadezhda 4 Rocket 3.9 04:32:48 10° S 04:38:55 78° E 04:45:00 10° N
ARIANE 5 DEB (SYLDA) 4.2 04:38:27 42° SW 04:40:11 51° S 04:54:31 10° ESE
Meteor 2-10 4.2 04:43:54 61° SSW 04:43:54 61° SSW 04:48:40 10° S
GPS 2-15 Rocket1 3.4 04:46:30 64° NNE 04:46:30 64° NNE 04:50:50 10° ENE
Maqsat-B 2.7 04:47:55 62° ESE 04:47:55 62° ESE 04:51:19 10° E
BREEZE-M DEB (TANK) 3.1 04:49:51 42° E 04:49:51 42° E 04:53:54 10° NE
Cosmos 1110 Rocket 4.2 04:47:17 32° N 04:49:38 67° ENE 04:54:47 10° SSE
NATO 3D Rocket 4.0 04:52:08 40° SSW 04:53:20 49° SSE 04:58:28 10° E
H-2A R/B 3.0 04:52:33 10° SSE 04:56:54 49° ENE 05:01:12 10° N
X-37B 3.2 04:55:42 16° SSE 04:57:00 20° SE 04:59:24 10° E
Maqsat-H 1.2 04:59:27 80° SW 04:59:36 85° S 05:03:44 10° E
ADEOS 3.4 04:57:14 10° N 05:02:27 86° WNW 05:07:40 10° SSW
Cosmos 2180 Rocket 4.5 04:57:26 10° N 05:03:36 83° E 05:09:44 10° S
SEDSat Delta rocket 2.7 05:04:12 65° SW 05:04:16 65° SSW 05:08:16 10° SE
Cosmos 1908 4.0 05:00:59 10° N 05:04:47 52° E 05:08:35 10° SSE
SL-14 R/B 3.6 05:00:56 10° S 05:10:16 - N 05:03:57 50° SSW
CZ-4B R/B 4.1 05:03:44 10° NNE 05:07:35 63° ESE 05:11:17 10° S
ARIANE 5 R/B 4.5 05:01:34 25° W 05:09:41 50° SSW 05:13:52 10° ESE
Landsat 5 3.3 05:07:54 10° S 05:12:05 81° WSW 05:14:34 23° NNW
Cosmos 1356 Rocket 3.6 05:18:26 41° WNW 05:19:05 45° W 05:22:58 10° SSW
Okean 1-7 Rocket 4.4 05:14:57 10° S 05:19:24 55° E 05:23:50 10° NNE
ARGOS Delta rocket 4.4 05:16:16 10° NNE 05:21:44 73° E 05:27:04 10° S
ALOS 2.4 05:19:22 10° N 05:23:52 50° WNW 05:28:22 10° SSW
Meteor 1-24 Rocket 3.7 05:21:47 10° SSW 05:27:00 51° W 05:32:25 10° N
Cosmos 1892 Rocket 3.4 05:23:42 10° S 05:27:59 67° W 05:32:17 10° N
CZ-4C R/B 3.9 05:29:36 10° SSW 05:32:09 26° WSW 05:32:09 26° WSW
Cosmos 1953 3.5 05:32:59 23° WSW 05:32:59 23° WSW 05:35:51 10° SSW
Cosmos 614 Rocket 4.1 05:27:47 10° SSW 05:32:49 51° WNW 05:37:48 10° N
ARIANE 5 R/B 2.8 05:24:18 15° WSW 05:33:22 48° S 05:36:27 10° ESE
deb Chang Zheng 4 4.0 05:29:45 10° N 05:33:43 38° WNW 05:37:41 10° SW
Cosmos 2026 Rocket 4.0 05:29:28 10° S 05:35:46 76° W 05:42:08 10° N
Ariane H10 3.8 05:31:55 10° SW 05:35:48 22° S 05:38:21 10° SE
METEOR-M 4.3 05:32:04 10° N 05:37:10 48° WNW 05:42:17 10° SSW
ARIANE 5 R/B 3.8 05:35:19 13° SW 05:37:15 27° SSE 05:43:03 10° ESE
SJ-12 3.8 05:35:23 10° N 05:39:26 72° W 05:43:28 10° SSW
SL-19 R/B 4.5 05:37:31 10° NNW 05:40:19 32° WNW 05:43:27 10° SW
Ariane H10 -0.6 05:40:29 65° E 05:40:29 65° E 05:41:48 10° E
Cosmos 1484 Rocket 3.9 05:39:55 10° NNW 05:42:48 21° WNW 05:45:40 10° SW
ASTRO F (AKARI) 4.4 05:39:40 10° NNE 05:42:55 76° ESE 05:46:01 10° S
Cosmos 1656 3.6 05:41:07 10° NNW 05:46:46 79° WSW 05:52:22 10° S
Meteor PRIRODA 3.5 05:48:13 10° N 05:51:51 67° W 05:55:31 10° SSW
Cosmos 1626 Rocket 4.2 05:47:37 10° S 05:51:58 61° E 05:56:21 10° NNE
Cosmos 1023 Rocket 4.4 05:48:42 10° SSW 05:53:46 65° WNW 05:58:48 10° N
Cosmos 1190 Rocket 4.0 05:55:05 10° SSW 06:00:16 59° WNW 06:05:25 10° N
USA 267 4.3 05:54:05 10° NE 06:00:22 51° SE 06:06:40 10° SSW
SAR-Lupe-4 4.2 05:57:55 10° SSE 06:01:26 58° ENE 06:04:55 10° N
ERS-2 2.4 05:59:57 10° S 06:03:27 46° WSW 06:06:56 10° NNW
Meteor 1-31 Rocket 4.4 06:05:25 10° NW 06:07:35 14° WNW 06:09:44 10° WSW
Cosmos 2098 Rocket 4.2 06:03:21 10° S 06:10:36 84° W 06:16:48 10° N
ARIANE 5 R/B 4.4 06:00:00 10° W 06:49:38 67° SSW 06:55:44 10° ESE
